Terminal Aerodrome Forecast
Issued by NWS

Home | Current Version | Previous Version | Text Only | Print | Product List | Glossary On
Versions: 1 2 3 4 5 6 7 8 9 10 11 12 13 14 15 16 17 18 19 20 21 22
000
FTUS44 KMAF 251400 AAA
TAFPEQ
TAF AMD
KPEQ 251404Z 2514/2612 VRB03KT P6SM SKC
      TEMPO 2514/2515 1/4SM FG VV002
     FM251700 20005KT P6SM SKC=

USA.gov is the U.S. government's official web portal to all federal, state and local government web resources and services.